Regional Weather Roundup
Issued by NWS

Home | Current Version | Previous Version | Text Only | Print | Product List | Glossary On
Versions: 1 2 3 4 5 6 7 8 9 10 11 12 13 14 15 16 17 18 19 20 21 22 23 24 25 26 27 28 29 30 31 32 33 34 35 36 37 38 39 40 41 42 43 44 45 46 47 48 49 50
000
ASUS44 KFWD 290015
RWRTX
NORTH TEXAS HOURLY WEATHER ROUNDUP
NATIONAL WEATHER SERVICE FORT WORTH TX
700 PM CDT SAT MAY 28 2016

NOTE: "FAIR" INDICATES FEW OR NO CLOUDS BELOW 12,000 FEET WITH NO
SIGNIFICANT WEATHER AND/OR OBSTRUCTIONS TO VISIBILITY.

TXZ118-119-290100-
DALLAS/FORT WORTH METROPLEX

CITY           SKY/WX    TMP DP  RH WIND       PRES   REMARKS
DFW AIRPORT    PTSUNNY   86  74  67 SE14      29.92R HX  94
6HR MIN TEMP:  78; 6HR MAX TEMP:  88;

DALLAS LOVE    MOSUNNY   85  74  69 SE13      29.92R HX  92
6HR MIN TEMP:  77; 6HR MAX TEMP:  87;

FTW MEACHAM    MOSUNNY   87  71  58 S13       29.91R HX  93
6HR MIN TEMP:  80; 6HR MAX TEMP:  91; 6HR PCP: TRACE;

DAL-EXECUTIVE  MOSUNNY   83  74  74 SE9       29.92S
6HR MIN TEMP:  75; 6HR MAX TEMP:  87;

FTW-ALLIANCE   PTSUNNY   86  73  65 SE8       29.91S HX  93
6HR MIN TEMP:  80; 6HR MAX TEMP:  89;

FTW-NAS-JRB    MOSUNNY   86  72  62 SE12      29.92R HX  92
6HR MIN TEMP:  79; 6HR MAX TEMP:  89;

FTW-SPINKS     MOSUNNY   86  72  62 S8        29.94R HX  92
ARLINGTON      MOSUNNY   88  72  58 S12       29.92R HX  94
6HR MIN TEMP:  79; 6HR MAX TEMP:  91;

GRAND PRAIRIE    N/A     86  72  62 SE6       29.93S HX  92
ADDISON        MOSUNNY   84  75  74 MISG      29.94S HX  92
MESQUITE       MOSUNNY   82  73  74 SE9       29.93S
LANCASTER      SUNNY     83  73  73 E7        29.94R
6HR MIN TEMP:  74; 6HR MAX TEMP:  85;

$$

TXZ091>094-102>105-117-120-121-131>134-290100-
NORTH CENTRAL TEXAS

CITY           SKY/WX    TMP DP  RH WIND       PRES   REMARKS
SHRMAN/DENISON SUNNY     79  67  66 SE10      29.95S
6HR MIN TEMP:  76; 6HR MAX TEMP:  83;

GAINESVILLE    MOSUNNY   82  71  68 SE9       29.96R
6HR MIN TEMP:  79; 6HR MAX TEMP:  84;

BOWIE          SUNNY     83  71  65 SE5       29.93R
6HR MIN TEMP:  81; 6HR MAX TEMP:  87;

BRIDGEPORT     SUNNY     87  70  56 SE6       29.93S HX  91
6HR MIN TEMP:  83; 6HR MAX TEMP:  89;

DECATUR        SUNNY     86  65  49 SE6       29.94S
6HR MIN TEMP:  78; 6HR MAX TEMP:  86; 6HR PCP:  0.01;

DENTON         SUNNY     85  72  65 E7        29.92R HX  91
6HR MIN TEMP:  78; 6HR MAX TEMP:  86;

MCKINNEY       PTSUNNY   82  73  74 SE8       29.94R
6HR MIN TEMP:  78; 6HR MAX TEMP:  83;

GREENVILLE     SUNNY     81  70  69 SE6       29.95S
ROCKWALL       MOSUNNY   81  73  76 SE5       29.93R
6HR MIN TEMP:  76; 6HR MAX TEMP:  84;

TERRELL        MOSUNNY   83  73  72 SE7       29.94R
6HR MIN TEMP:  74; 6HR MAX TEMP:  84;

WAXAHACHIE     MOSUNNY   83  74  72 SE9       29.95R HX  90
6HR MIN TEMP:  75; 6HR MAX TEMP:  87;

CLEBURNE       SUNNY     86  77  74 SE9       29.95R HX  97
GRANBURY       SUNNY     88  73  61 SE9G16    29.92S HX  95
6HR MIN TEMP:  81; 6HR MAX TEMP:  91;

$$

TXZ083>090-098>101-113>116-127>130-139>142-154-155-290100-
WESTERN NORTH TEXAS

CITY           SKY/WX    TMP DP  RH WIND       PRES   REMARKS
WICHITA FALLS  SUNNY     87  64  46 E8        29.91S
6HR MIN TEMP:  79; 6HR MAX TEMP:  89;

WF-KICKAPOO    SUNNY     88  65  47 NE7       29.92S HX  90
6HR MIN TEMP:  82; 6HR MAX TEMP:  89;

VERNON         SUNNY     87  49  26 E8        29.94S
ABILENE        CLOUDY    84  63  49 S13G25    29.93R
6HR MIN TEMP:  84; 6HR MAX TEMP:  90;

ABILENE-DYESS  CLOUDY    82  60  46 SE21      29.90S
6HR MIN TEMP:  82; 6HR MAX TEMP:  91;

BRECKENRIDGE   PTSUNNY   90  60  36 SE5       29.91S
6HR MIN TEMP:  87; 6HR MAX TEMP:  92;

GRAHAM         SUNNY     89  67  48 SE7       29.89S HX  92
6HR MIN TEMP:  86; 6HR MAX TEMP:  93;

MINERAL WELLS  SUNNY     87  73  62 SE9       29.90S HX  94
6HR MIN TEMP:  80; 6HR MAX TEMP:  89;

STEPHENVILLE   SUNNY     87  71  57 SE8       29.95S HX  92
6HR MIN TEMP:  82; 6HR MAX TEMP:  90;

COMANCHE       CLOUDY    83  69  64 S7        29.93S
6HR MIN TEMP:  83; 6HR MAX TEMP:  91; 6HR PCP:  0.01;

BROWNWOOD      CLOUDY    86  70  58 SE8       29.91F HX  90
COLEMAN        MOSUNNY   88  65  45 SE8       29.92F
6HR MIN TEMP:  84; 6HR MAX TEMP:  92;

$$

TXZ143>147-156>162-174-175-290100-
CENTRAL TEXAS

CITY           SKY/WX    TMP DP  RH WIND       PRES   REMARKS
WACO           SUNNY     85  73  67 SE13      29.91S HX  91
6HR MIN TEMP:  82; 6HR MAX TEMP:  90;

WACO-MCGREGOR  SUNNY    N/A N/A N/A SE7         N/A
HILLSBORO      SUNNY     83  73  69 SE8       29.93S
6HR MIN TEMP:  81; 6HR MAX TEMP:  86;

CORSICANA      PTSUNNY   87  73  62 SE12      29.95  HX  94
6HR MIN TEMP:  79; 6HR MAX TEMP:  88;

MEXIA          SUNNY     85  73  68 SE7       29.93S HX  92
6HR MIN TEMP:  80; 6HR MAX TEMP:  86;

HEARNE         SUNNY     86  74  68 SE7       29.93S HX  94
6HR MIN TEMP:  82; 6HR MAX TEMP:  89;

CAMERON        MOSUNNY   88  72  59 S8        29.91S HX  94
6HR MIN TEMP:  82; 6HR MAX TEMP:  90;

TEMPLE         SUNNY     87  73  62 SE10      29.92S HX  94
6HR MIN TEMP:  82; 6HR MAX TEMP:  90;

KILLEEN        SUNNY     86  72  62 SE13      29.91S HX  92
6HR MIN TEMP:  85; 6HR MAX TEMP:  90;

KILLEEN-SKYLRK SUNNY     88  72  58 SE12      29.92S HX  94
6HR MIN TEMP:  84; 6HR MAX TEMP:  91;

FORT HOOD      SUNNY     87  70  58 SE12      29.90S HX  91
6HR MIN TEMP:  84; 6HR MAX TEMP:  90;

GATESVILLE     SUNNY     86  72  62 SE8       29.94S HX  92
HAMILTON       CLOUDY    84  72  65 SE8       29.94S HX  90
6HR MIN TEMP:  84; 6HR MAX TEMP:  91;

LAMPASAS       SUNNY     88  72  59 SE12      29.92S HX  95
6HR MIN TEMP:  83; 6HR MAX TEMP:  91;

$$

TXZ095>097-106>112-122>126-135>138-148>153-164>167-290100-
EAST TEXAS

CITY           SKY/WX    TMP DP  RH WIND       PRES   REMARKS
PARIS          PTSUNNY   81  64  57 S10       29.97R
6HR MIN TEMP:  75; 6HR MAX TEMP:  82;

SULPHUR SPRNGS MOSUNNY   82  69  65 S8        29.99S
6HR MIN TEMP:  77; 6HR MAX TEMP:  83;

MOUNT PLEASANT MOSUNNY   81  69  67 SE5       29.99R
6HR MIN TEMP:  75; 6HR MAX TEMP:  82;

GILMER         PTSUNNY   82  71  68 SE5       29.97S
6HR MIN TEMP:  74; 6HR MAX TEMP:  83;

MINEOLA        SUNNY     82  73  74 CALM      29.97S
TYLER          MOSUNNY   85  71  63 SE10      29.95F HX  90
6HR MIN TEMP:  76; 6HR MAX TEMP:  86;

LONGVIEW       MOSUNNY   83  72  69 SE5       29.96S
6HR MIN TEMP:  79; 6HR MAX TEMP:  85;

MARSHALL       SUNNY     85  69  59 S3        29.99S
6HR MIN TEMP:  79; 6HR MAX TEMP:  85;

ATHENS         SUNNY     82  72  69 SE5       29.94R
PALESTINE      SUNNY     85  73  66 S7        29.96R HX  92
JACKSONVILLE   SUNNY     85  73  66 SE3       29.99S HX  91
HENDERSON      SUNNY     84  71  65 E3        29.98R
6HR MIN TEMP:  79; 6HR MAX TEMP:  85;

CENTER         FAIR      87  73  62 NE3       29.97S HX  95
6HR MIN TEMP:  84; 6HR MAX TEMP:  89;

NACOGDOCHES    SUNNY     86  73  66 SE7       29.96R HX  93
6HR MIN TEMP:  81; 6HR MAX TEMP:  88;

LUFKIN         SUNNY     84  72  67 SE5       29.96R
6HR MIN TEMP:  84; 6HR MAX TEMP:  89;

$$

SUPPLEMENTAL OBSERVATIONS (CENTRAL)

CITY           SKY/WX    TMP DP  RH WIND       PRES   REMARKS
CADDO GRASSLND   N/A     82  72  69 S5          N/A
PAT MAYSE LAKE   N/A     81  72  74 E6          N/A
GREENVILLE       N/A     81  70  69 SE5         N/A
MCGREGOR         N/A     84  70  61 S9          N/A
$$

SUPPLEMENTAL OBSERVATIONS (WEST)

CITY           SKY/WX    TMP DP  RH WIND       PRES   REMARKS
MILLERS CREEK    N/A     90  63  40 NE10        N/A  HX  90
LBJ GRASSLAND    N/A     86  70  58 SE6         N/A  HX  90
HAMBY            N/A     86  64  48 SE3         N/A
IVIE RESERVOIR   N/A     88  66  48 SE12 C1F1C2F2C3F3C4F4C5F5C6F6C7F7C8F8C9!



USA.gov is the U.S. government's official web portal to all federal, state and local government web resources and services.